Flag for Colombia Weather past 2 weeks in Barranquilla, Colombia

Now
82 °F

Scattered showers. Partly cloudy.


Feels Like: 92 °F
Forecast: 75 / 87 °F
Wind: 5 mph from Northeast

Location: Barranquilla / Ernestocortissoz

Current Time: Oct 20, 2014 at 9:25:50 PM

Latest Report: Oct 20, 2014 at 8:00 PM


Visibility: 5 mi

Pressure: 29.82 "Hg

Humidity: 89%

Dew point: 79 °F

Location of BarranquillaLocation

Historic Weather in Barranquilla — Graph

°F

Barranquilla temperature yesterday

Maximum temperature yesterday: 91 °F (at 12:00 PM)
Minimum temperature yesterday: 72 °F (at 7:00 PM)
Average temperature yesterday: 80 °F

Past Weeks' High & Low Weather Summary

 TemperatureHumidityPressure
High93 °F (Oct 7, 12:00 PM)100% (Oct 6, 3:00 AM)29.95 "Hg (Oct 6, 3:00 AM)
Low72 °F (Oct 19, 7:00 PM)63% (Oct 7, 12:00 PM)29.75 "Hg (Oct 6, 5:00 PM)
Average81 °F89%29.85 "Hg
* Reported Oct 5 8:00 PM — Oct 20 8:00 PM, Barranquilla, Weather by CustomWeather, © 2014

Note: Actual official high and low records may vary slightly from our data, if they occured in-between our weather recording intervals... More about our weather records

Advertising

Barranquilla weather history for previous 24 hours

 ConditionsComfort  
Time TempWeatherWind HumidityBarometerVisibility
8:00 PM
Oct 20
82 °FScattered showers. Partly cloudy.5 mph89%29.82 "Hg5 mi
7:00 PM82 °FScattered showers. Partly cloudy.5 mph89%29.82 "Hg5 mi
6:00 PM82 °FScattered showers. Partly cloudy.9 mph89%29.80 "Hg5 mi
5:00 PM84 °FScattered showers. Scattered clouds.9 mph84%29.78 "Hg5 mi
4:00 PM90 °FPartly sunny.9 mph67%29.76 "HgN/A
3:00 PM90 °FScattered clouds.6 mph71%29.77 "HgN/A
2:00 PM88 °FScattered clouds.8 mph75%29.80 "HgN/A
1:00 PM88 °FScattered clouds.5 mph75%29.82 "HgN/A
12:00 PM88 °FScattered clouds.7 mph79%29.87 "HgN/A
11:00 AM86 °FBroken clouds.2 mph79%29.90 "HgN/A
10:00 AM84 °FBroken clouds.5 mph84%29.93 "HgN/A
9:00 AM82 °FBroken clouds.2 mph89%29.94 "HgN/A
8:00 AM77 °FBroken clouds.No wind94%29.94 "HgN/A
7:00 AM75 °FPartly sunny.No wind100%29.91 "HgN/A
6:00 AM73 °FPartly sunny.No wind100%29.89 "HgN/A
5:00 AM73 °FPassing clouds.No wind100%29.87 "HgN/A
4:00 AM73 °FPassing clouds.2 mph100%29.85 "HgN/A
3:00 AM73 °FPassing clouds.No wind100%29.85 "HgN/A
2:00 AM73 °FPassing clouds.5 mph100%29.86 "HgN/A
1:00 AM73 °FPartly cloudy.5 mph100%29.91 "HgN/A
12:00 AM73 °FPartly cloudy.No wind100%29.92 "HgN/A
10:00 PM
Oct 19
73 °FPartly cloudy.2 mph100%29.89 "HgN/A
9:00 PM73 °FLight rain. Partly cloudy.5 mph100%29.91 "HgN/A
Weather by CustomWeather, © 2014

See weather overviewHow to use our weather pages